Time,TemperatureF,DewpointF,PressureIn,WindDirection,WindDirectionDegrees,WindSpeedMPH,WindSpeedGustMPH,Humidity,HourlyPrecipIn,Conditions,Clouds,dailyrainin,SoftwareType,DateUTC
2013-01-08 00:05:00,30.2,9.3,29.76,SSE,153,1.0,1.0,41,0.00,,,0.00,Wunderground v.1.15,2013-01-08 07:05:00,
2013-01-08 00:15:00,30.2,9.3,29.75,ENE,74,0.0,1.0,41,0.00,,,0.00,Wunderground v.1.15,2013-01-08 07:15:00,
2013-01-08 00:20:00,30.2,8.7,29.75,West,270,0.0,0.0,40,0.00,,,0.00,Wunderground v.1.15,2013-01-08 07:20:00,
2013-01-08 00:25:00,30.5,9.0,29.76,NE,36,1.0,1.0,40,0.00,,,0.00,Wunderground v.1.15,2013-01-08 07:25:00,
2013-01-08 00:30:00,30.5,9.0,29.75,NNE,32,1.0,1.0,40,0.00,,,0.00,Wunderground v.1.15,2013-01-08 07:30:00,
2013-01-08 00:40:00,31.6,8.9,29.75,ESE,119,1.0,1.0,38,0.00,,,0.00,Wunderground v.1.15,2013-01-08 07:40:00,
2013-01-08 00:45:00,31.2,8.5,29.75,WSW,245,1.0,1.0,38,0.00,,,0.00,Wunderground v.1.15,2013-01-08 07:45:00,
2013-01-08 00:50:00,31.9,8.5,29.76,WSW,245,1.0,1.0,37,0.00,,,0.00,Wunderground v.1.15,2013-01-08 07:50:00,
2013-01-08 00:55:00,32.0,9.2,29.76,West,265,1.0,2.0,38,0.00,,,0.00,Wunderground v.1.15,2013-01-08 07:55:00,
2013-01-08 01:00:00,31.9,9.1,29.75,NE,44,1.0,1.0,38,0.00,,,0.00,Wunderground v.1.15,2013-01-08 08:00:00,
2013-01-08 01:05:00,31.6,8.3,29.75,NE,52,1.0,1.0,37,0.00,,,0.00,Wunderground v.1.15,2013-01-08 08:05:00,
2013-01-08 01:15:00,31.4,9.3,29.76,North,6,1.0,1.0,39,0.00,,,0.00,Wunderground v.1.15,2013-01-08 08:15:00,
2013-01-08 01:20:00,31.3,9.2,29.76,NNE,20,1.0,1.0,39,0.00,,,0.00,Wunderground v.1.15,2013-01-08 08:20:00,
2013-01-08 01:30:00,32.9,8.2,29.76,ESE,115,1.0,1.0,35,0.00,,,0.00,Wunderground v.1.15,2013-01-08 08:30:00,
2013-01-08 01:35:00,33.2,7.2,29.76,East,94,0.0,1.0,33,0.00,,,0.00,Wunderground v.1.15,2013-01-08 08:35:00,
2013-01-08 01:40:00,32.5,9.7,29.76,WSW,250,0.0,2.0,38,0.00,,,0.00,Wunderground v.1.15,2013-01-08 08:40:00,
2013-01-08 01:45:00,31.6,9.4,29.77,ENE,76,1.0,2.0,39,0.00,,,0.00,Wunderground v.1.15,2013-01-08 08:45:00,
2013-01-08 01:55:00,31.8,9.0,29.78,SW,226,1.0,1.0,38,0.00,,,0.00,Wunderground v.1.15,2013-01-08 08:55:00,
2013-01-08 02:05:00,33.7,8.3,29.78,NNW,329,2.0,6.0,34,0.00,,,0.00,Wunderground v.1.15,2013-01-08 09:05:00,
2013-01-08 02:15:00,34.7,7.8,29.77,SSE,149,1.0,3.0,32,0.00,,,0.00,Wunderground v.1.15,2013-01-08 09:15:00,
2013-01-08 02:20:00,34.4,6.8,29.77,NE,44,1.0,3.0,31,0.00,,,0.00,Wunderground v.1.15,2013-01-08 09:20:00,
2013-01-08 02:30:00,37.1,7.7,29.77,SE,142,1.0,1.0,29,0.00,,,0.00,Wunderground v.1.15,2013-01-08 09:30:00,
2013-01-08 02:35:00,36.5,8.0,29.77,WSW,240,1.0,3.0,30,0.00,,,0.00,Wunderground v.1.15,2013-01-08 09:35:00,
2013-01-08 02:40:00,36.7,9.6,29.77,WSW,245,2.0,2.0,32,0.00,,,0.00,Wunderground v.1.15,2013-01-08 09:40:00,
2013-01-08 02:50:00,40.7,10.1,29.76,WSW,250,3.0,4.0,28,0.00,,,0.00,Wunderground v.1.15,2013-01-08 09:50:00,
2013-01-08 02:55:00,41.2,9.7,29.75,East,94,3.0,4.0,27,0.00,,,0.00,Wunderground v.1.15,2013-01-08 09:55:00,
2013-01-08 03:00:00,39.7,9.2,29.75,NE,53,2.0,3.0,28,0.00,,,0.00,Wunderground v.1.15,2013-01-08 10:00:00,
2013-01-08 03:05:00,40.1,9.6,29.75,NNW,330,1.0,3.0,28,0.00,,,0.00,Wunderground v.1.15,2013-01-08 10:05:00,
2013-01-08 03:15:00,40.5,8.2,29.75,North,8,2.0,3.0,26,0.00,,,0.00,Wunderground v.1.15,2013-01-08 10:15:00,
2013-01-08 03:25:00,38.7,9.1,29.75,WSW,250,1.0,2.0,29,0.00,,,0.00,Wunderground v.1.15,2013-01-08 10:25:00,
2013-01-08 03:30:00,37.7,9.0,29.76,WSW,253,1.0,1.0,30,0.00,,,0.00,Wunderground v.1.15,2013-01-08 10:30:00,
2013-01-08 03:35:00,37.4,9.5,29.76,WNW,295,1.0,3.0,31,0.00,,,0.00,Wunderground v.1.15,2013-01-08 10:35:00,
2013-01-08 03:40:00,38.8,10.0,29.76,SE,141,2.0,2.0,30,0.00,,,0.00,Wunderground v.1.15,2013-01-08 10:40:00,
2013-01-08 03:45:00,37.3,9.4,29.77,NNW,343,2.0,2.0,31,0.00,,,0.00,Wunderground v.1.15,2013-01-08 10:45:00,
2013-01-08 03:50:00,36.2,10.5,29.77,West,264,1.0,1.0,34,0.00,,,0.00,Wunderground v.1.15,2013-01-08 10:50:00,
2013-01-08 03:55:00,35.1,10.2,29.77,WSW,245,1.0,2.0,35,0.00,,,0.00,Wunderground v.1.15,2013-01-08 10:55:00,
2013-01-08 04:05:00,37.3,10.1,29.77,WNW,285,3.0,4.0,32,0.00,,,0.00,Wunderground v.1.15,2013-01-08 11:05:00,
2013-01-08 04:15:00,36.6,10.8,29.77,WSW,240,1.0,3.0,34,0.00,,,0.00,Wunderground v.1.15,2013-01-08 11:15:00,
2013-01-08 04:20:00,35.6,10.6,29.78,West,261,1.0,1.0,35,0.00,,,0.00,Wunderground v.1.15,2013-01-08 11:20:00,
2013-01-08 04:25:00,35.4,11.1,29.77,NNW,338,0.0,2.0,36,0.00,,,0.00,Wunderground v.1.15,2013-01-08 11:25:00,
2013-01-08 04:30:00,34.7,11.0,29.78,WNW,295,1.0,3.0,37,0.00,,,0.00,Wunderground v.1.15,2013-01-08 11:30:00,
2013-01-08 04:35:00,35.0,11.9,29.78,SSW,207,2.0,3.0,38,0.00,,,0.00,Wunderground v.1.15,2013-01-08 11:35:00,
2013-01-08 04:45:00,34.0,12.2,29.78,West,273,2.0,2.0,40,0.00,,,0.00,Wunderground v.1.15,2013-01-08 11:45:00,
2013-01-08 04:50:00,34.6,11.6,29.78,West,263,2.0,2.0,38,0.00,,,0.00,Wunderground v.1.15,2013-01-08 11:50:00,
2013-01-08 04:55:00,35.2,12.1,29.78,WNW,289,1.0,2.0,38,0.00,,,0.00,Wunderground v.1.15,2013-01-08 11:55:00,
2013-01-08 05:00:00,35.0,11.9,29.78,West,270,1.0,3.0,38,0.00,,,0.00,Wunderground v.1.15,2013-01-08 12:00:00,
2013-01-08 05:05:00,36.1,12.3,29.78,ESE,121,2.0,3.0,37,0.00,,,0.00,Wunderground v.1.15,2013-01-08 12:05:00,
2013-01-08 05:15:00,34.4,12.0,29.78,NE,52,1.0,2.0,39,0.00,,,0.00,Wunderground v.1.15,2013-01-08 12:15:00,
2013-01-08 05:25:00,33.8,12.0,29.78,NW,318,1.0,1.0,40,0.00,,,0.00,Wunderground v.1.15,2013-01-08 12:25:00,
2013-01-08 05:35:00,33.6,12.4,29.78,SW,228,0.0,1.0,41,0.00,,,0.00,Wunderground v.1.15,2013-01-08 12:35:00,
2013-01-08 05:40:00,33.4,12.2,29.78,SW,226,1.0,1.0,41,0.00,,,0.00,Wunderground v.1.15,2013-01-08 12:40:00,
2013-01-08 05:45:00,33.7,11.9,29.77,WSW,253,0.0,1.0,40,0.00,,,0.00,Wunderground v.1.15,2013-01-08 12:45:00,
2013-01-08 05:50:00,33.3,12.1,29.77,NE,36,1.0,1.0,41,0.00,,,0.00,Wunderground v.1.15,2013-01-08 12:50:00,
2013-01-08 05:55:00,33.3,12.6,29.78,SE,136,1.0,1.0,42,0.00,,,0.00,Wunderground v.1.15,2013-01-08 12:55:00,
2013-01-08 06:00:00,33.1,13.0,29.78,WSW,242,1.0,3.0,43,0.00,,,0.00,Wunderground v.1.15,2013-01-08 13:00:00,
2013-01-08 06:05:00,32.8,12.7,29.78,ENE,72,1.0,3.0,43,0.00,,,0.00,Wunderground v.1.15,2013-01-08 13:05:00,
2013-01-08 06:15:00,33.5,13.4,29.78,West,278,1.0,1.0,43,0.00,,,0.00,Wunderground v.1.15,2013-01-08 13:15:00,
2013-01-08 06:20:00,33.9,13.2,29.78,West,278,1.0,1.0,42,0.00,,,0.00,Wunderground v.1.15,2013-01-08 13:20:00,
2013-01-08 06:25:00,34.8,14.0,29.78,WSW,245,1.0,4.0,42,0.00,,,0.00,Wunderground v.1.15,2013-01-08 13:25:00,
2013-01-08 06:30:00,34.2,14.5,29.78,WSW,238,2.0,5.0,44,0.00,,,0.00,Wunderground v.1.15,2013-01-08 13:30:00,
2013-01-08 06:35:00,37.5,15.3,29.78,West,273,4.0,7.0,40,0.00,,,0.00,Wunderground v.1.15,2013-01-08 13:35:00,
2013-01-08 06:40:00,40.6,15.0,29.78,NE,50,5.0,8.0,35,0.00,,,0.00,Wunderground v.1.15,2013-01-08 13:40:00,
2013-01-08 06:45:00,42.1,14.3,29.78,West,260,7.0,11.0,32,0.00,,,0.00,Wunderground v.1.15,2013-01-08 13:45:00,
2013-01-08 06:55:00,42.9,15.0,29.78,WSW,252,7.0,7.0,32,0.00,,,0.00,Wunderground v.1.15,2013-01-08 13:55:00,
2013-01-08 07:00:00,43.1,15.2,29.80,West,274,7.0,7.0,32,0.00,,,0.00,Wunderground v.1.15,2013-01-08 14:00:00,
2013-01-08 07:05:00,43.1,14.5,29.81,West,275,6.0,7.0,31,0.00,,,0.00,Wunderground v.1.15,2013-01-08 14:05:00,
2013-01-08 07:15:00,42.6,14.8,29.82,NW,324,4.0,7.0,32,0.00,,,0.00,Wunderground v.1.15,2013-01-08 14:15:00,
2013-01-08 07:20:00,42.4,15.3,29.82,NNW,340,3.0,3.0,33,0.00,,,0.00,Wunderground v.1.15,2013-01-08 14:20:00,
2013-01-08 07:30:00,42.5,15.4,29.82,SE,130,5.0,5.0,33,0.00,,,0.00,Wunderground v.1.15,2013-01-08 14:30:00,
2013-01-08 07:35:00,42.3,15.9,29.82,WSW,256,4.0,11.0,34,0.00,,,0.00,Wunderground v.1.15,2013-01-08 14:35:00,
2013-01-08 07:40:00,42.4,16.0,29.83,West,278,4.0,8.0,34,0.00,,,0.00,Wunderground v.1.15,2013-01-08 14:40:00,
2013-01-08 07:45:00,42.3,15.9,29.83,West,262,5.0,8.0,34,0.00,,,0.00,Wunderground v.1.15,2013-01-08 14:45:00,
2013-01-08 07:50:00,42.3,15.9,29.83,WSW,255,5.0,5.0,34,0.00,,,0.00,Wunderground v.1.15,2013-01-08 14:50:00,
2013-01-08 07:55:00,42.1,15.7,29.83,WNW,297,4.0,5.0,34,0.00,,,0.00,Wunderground v.1.15,2013-01-08 14:55:00,
2013-01-08 08:00:00,42.2,15.8,29.83,WSW,246,4.0,4.0,34,0.00,,,0.00,Wunderground v.1.15,2013-01-08 15:00:00,
2013-01-08 08:05:00,42.4,16.0,29.83,West,273,5.0,11.0,34,0.00,,,0.00,Wunderground v.1.15,2013-01-08 15:05:00,
2013-01-08 08:15:00,43.3,15.4,29.84,West,273,5.0,9.0,32,0.00,,,0.00,Wunderground v.1.15,2013-01-08 15:15:00,
2013-01-08 08:20:00,43.8,15.8,29.84,SW,228,5.0,17.0,32,0.00,,,0.00,Wunderground v.1.15,2013-01-08 15:20:00,
2013-01-08 08:25:00,44.1,15.3,29.84,East,95,5.0,17.0,31,0.00,,,0.00,Wunderground v.1.15,2013-01-08 15:25:00,
2013-01-08 08:30:00,44.1,15.3,29.83,West,264,7.0,15.0,31,0.00,,,0.00,Wunderground v.1.15,2013-01-08 15:30:00,
2013-01-08 08:35:00,44.6,15.0,29.82,WSW,253,8.0,15.0,30,0.00,,,0.00,Wunderground v.1.15,2013-01-08 15:35:00,
2013-01-08 08:40:00,44.6,15.0,29.82,SSW,206,8.0,8.0,30,0.00,,,0.00,Wunderground v.1.15,2013-01-08 15:40:00,
2013-01-08 08:50:00,44.6,15.0,29.83,WSW,243,8.0,8.0,30,0.00,,,0.00,Wunderground v.1.15,2013-01-08 15:50:00,
2013-01-08 08:55:00,45.0,15.4,29.83,SW,235,9.0,9.0,30,0.00,,,0.00,Wunderground v.1.15,2013-01-08 15:55:00,
2013-01-08 09:05:00,46.0,15.5,29.84,WSW,247,10.0,12.0,29,0.00,,,0.00,Wunderground v.1.15,2013-01-08 16:05:00,
2013-01-08 09:15:00,46.5,16.7,29.84,SW,219,9.0,10.0,30,0.00,,,0.00,Wunderground v.1.15,2013-01-08 16:15:00,
2013-01-08 09:25:00,47.1,16.4,29.85,SW,227,8.0,9.0,29,0.00,,,0.00,Wunderground v.1.15,2013-01-08 16:25:00,
2013-01-08 09:30:00,46.8,16.2,29.85,WNW,291,7.0,7.0,29,0.00,,,0.00,Wunderground v.1.15,2013-01-08 16:30:00,
2013-01-08 09:40:00,46.6,16.8,29.84,SW,215,7.0,7.0,30,0.00,,,0.00,Wunderground v.1.15,2013-01-08 16:40:00,
2013-01-08 09:45:00,46.6,16.0,29.84,WNW,288,6.0,7.0,29,0.00,,,0.00,Wunderground v.1.15,2013-01-08 16:45:00,
2013-01-08 09:50:00,47.1,16.4,29.84,SW,219,7.0,11.0,29,0.00,,,0.00,Wunderground v.1.15,2013-01-08 16:50:00,
2013-01-08 10:00:00,48.5,16.0,29.85,WSW,257,6.0,8.0,27,0.00,,,0.00,Wunderground v.1.15,2013-01-08 17:00:00,
2013-01-08 10:05:00,48.7,16.2,29.85,West,269,6.0,8.0,27,0.00,,,0.00,Wunderground v.1.15,2013-01-08 17:05:00,
2013-01-08 10:15:00,49.1,16.5,29.85,SW,236,4.0,5.0,27,0.00,,,0.00,Wunderground v.1.15,2013-01-08 17:15:00,
2013-01-08 10:20:00,49.4,16.8,29.85,WSW,240,4.0,4.0,27,0.00,,,0.00,Wunderground v.1.15,2013-01-08 17:20:00,
2013-01-08 10:25:00,49.5,16.9,29.86,SSW,205,4.0,4.0,27,0.00,,,0.00,Wunderground v.1.15,2013-01-08 17:25:00,
2013-01-08 10:35:00,49.3,17.5,29.85,WSW,242,6.0,12.0,28,0.00,,,0.00,Wunderground v.1.15,2013-01-08 17:35:00,
2013-01-08 10:40:00,49.0,17.3,29.86,SW,228,7.0,7.0,28,0.00,,,0.00,Wunderground v.1.15,2013-01-08 17:40:00,
2013-01-08 10:45:00,48.7,17.8,29.85,WSW,252,7.0,7.0,29,0.00,,,0.00,Wunderground v.1.15,2013-01-08 17:45:00,
2013-01-08 10:50:00,48.9,18.0,29.86,WSW,253,6.0,10.0,29,0.00,,,0.00,Wunderground v.1.15,2013-01-08 17:50:00,
2013-01-08 10:55:00,48.9,18.0,29.85,SW,227,6.0,10.0,29,0.00,,,0.00,Wunderground v.1.15,2013-01-08 17:55:00,
2013-01-08 11:05:00,48.9,18.0,29.85,WSW,245,7.0,12.0,29,0.00,,,0.00,Wunderground v.1.15,2013-01-08 18:05:00,
2013-01-08 11:15:00,48.7,17.8,29.84,WSW,239,7.0,7.0,29,0.00,,,0.00,Wunderground v.1.15,2013-01-08 18:15:00,
2013-01-08 11:20:00,48.8,17.9,29.84,West,265,7.0,7.0,29,0.00,,,0.00,Wunderground v.1.15,2013-01-08 18:20:00,
2013-01-08 11:25:00,49.1,18.2,29.84,WSW,250,8.0,8.0,29,0.00,,,0.00,Wunderground v.1.15,2013-01-08 18:25:00,
2013-01-08 11:30:00,49.4,18.4,29.84,WSW,242,8.0,9.0,29,0.00,,,0.00,Wunderground v.1.15,2013-01-08 18:30:00,
2013-01-08 11:40:00,48.9,18.0,29.83,West,261,9.0,9.0,29,0.00,,,0.00,Wunderground v.1.15,2013-01-08 18:40:00,
2013-01-08 11:45:00,48.3,17.5,29.83,West,264,9.0,9.0,29,0.00,,,0.00,Wunderground v.1.15,2013-01-08 18:45:00,
2013-01-08 11:50:00,48.1,18.1,29.84,West,267,9.0,9.0,30,0.00,,,0.00,Wunderground v.1.15,2013-01-08 18:50:00,
2013-01-08 11:55:00,47.8,17.8,29.84,WSW,242,8.0,9.0,30,0.00,,,0.00,Wunderground v.1.15,2013-01-08 18:55:00,
2013-01-08 12:00:00,48.0,18.0,29.84,WSW,243,9.0,9.0,30,0.00,,,0.00,Wunderground v.1.15,2013-01-08 19:00:00,
2013-01-08 12:05:00,48.1,17.3,29.84,WNW,290,8.0,10.0,29,0.00,,,0.00,Wunderground v.1.15,2013-01-08 19:05:00,
2013-01-08 12:15:00,48.1,17.3,29.84,WSW,239,7.0,8.0,29,0.00,,,0.00,Wunderground v.1.15,2013-01-08 19:15:00,
2013-01-08 12:20:00,48.0,17.2,29.84,SSW,205,8.0,8.0,29,0.00,,,0.00,Wunderground v.1.15,2013-01-08 19:20:00,
2013-01-08 12:25:00,48.1,17.3,29.84,WSW,250,7.0,11.0,29,0.00,,,0.00,Wunderground v.1.15,2013-01-08 19:25:00,
2013-01-08 12:30:00,48.0,18.0,29.84,SSW,205,7.0,7.0,30,0.00,,,0.00,Wunderground v.1.15,2013-01-08 19:30:00,
2013-01-08 12:35:00,47.9,17.9,29.84,SSW,193,8.0,8.0,30,0.00,,,0.00,Wunderground v.1.15,2013-01-08 19:35:00,
2013-01-08 12:40:00,48.3,18.3,29.84,WSW,239,8.0,8.0,30,0.00,,,0.00,Wunderground v.1.15,2013-01-08 19:40:00,
2013-01-08 12:50:00,48.4,17.6,29.85,SSW,206,7.0,7.0,29,0.00,,,0.00,Wunderground v.1.15,2013-01-08 19:50:00,
2013-01-08 13:00:00,48.1,17.3,29.85,WSW,255,7.0,8.0,29,0.00,,,0.00,Wunderground v.1.15,2013-01-08 20:00:00,
2013-01-08 13:05:00,47.6,17.6,29.85,WSW,240,7.0,8.0,30,0.00,,,0.00,Wunderground v.1.15,2013-01-08 20:05:00,
2013-01-08 13:15:00,47.2,17.3,29.86,SW,214,7.0,7.0,30,0.00,,,0.00,Wunderground v.1.15,2013-01-08 20:15:00,
2013-01-08 13:20:00,47.4,17.5,29.85,WSW,248,7.0,7.0,30,0.00,,,0.00,Wunderground v.1.15,2013-01-08 20:20:00,
2013-01-08 13:25:00,47.6,17.6,29.86,WSW,239,8.0,8.0,30,0.00,,,0.00,Wunderground v.1.15,2013-01-08 20:25:00,
2013-01-08 13:35:00,48.2,17.4,29.87,SW,236,8.0,8.0,29,0.00,,,0.00,Wunderground v.1.15,2013-01-08 20:35:00,
2013-01-08 13:40:00,48.6,17.7,29.87,SW,219,7.0,7.0,29,0.00,,,0.00,Wunderground v.1.15,2013-01-08 20:40:00,
2013-01-08 13:45:00,49.5,17.7,29.87,WSW,239,6.0,10.0,28,0.00,,,0.00,Wunderground v.1.15,2013-01-08 20:45:00,
2013-01-08 13:50:00,50.3,17.5,29.88,WSW,242,7.0,8.0,27,0.00,,,0.00,Wunderground v.1.15,2013-01-08 20:50:00,
2013-01-08 13:55:00,50.5,17.7,29.88,SW,231,8.0,8.0,27,0.00,,,0.00,Wunderground v.1.15,2013-01-08 20:55:00,
2013-01-08 14:00:00,50.4,17.6,29.88,SW,220,7.0,7.0,27,0.00,,,0.00,Wunderground v.1.15,2013-01-08 21:00:00,
2013-01-08 14:05:00,50.1,17.4,29.88,SSW,204,7.0,7.0,27,0.00,,,0.00,Wunderground v.1.15,2013-01-08 21:05:00,
2013-01-08 14:15:00,49.0,17.3,29.89,SW,232,9.0,9.0,28,0.00,,,0.00,Wunderground v.1.15,2013-01-08 21:15:00,
2013-01-08 14:20:00,48.2,17.4,29.89,WSW,249,11.0,13.0,29,0.00,,,0.00,Wunderground v.1.15,2013-01-08 21:20:00,
2013-01-08 14:25:00,47.8,17.8,29.90,SW,229,10.0,14.0,30,0.00,,,0.00,Wunderground v.1.15,2013-01-08 21:25:00,
2013-01-08 14:30:00,47.9,17.9,29.90,West,264,9.0,9.0,30,0.00,,,0.00,Wunderground v.1.15,2013-01-08 21:30:00,
2013-01-08 14:35:00,48.1,17.3,29.91,WSW,250,9.0,15.0,29,0.00,,,0.00,Wunderground v.1.15,2013-01-08 21:35:00,
2013-01-08 14:40:00,48.1,17.3,29.91,West,277,9.0,11.0,29,0.00,,,0.00,Wunderground v.1.15,2013-01-08 21:40:00,
2013-01-08 14:50:00,48.2,17.4,29.91,WSW,245,7.0,7.0,29,0.00,,,0.00,Wunderground v.1.15,2013-01-08 21:50:00,
2013-01-08 14:55:00,48.3,17.5,29.91,WSW,253,8.0,8.0,29,0.00,,,0.00,Wunderground v.1.15,2013-01-08 21:55:00,
2013-01-08 15:00:00,48.3,17.5,29.92,West,265,8.0,10.0,29,0.00,,,0.00,Wunderground v.1.15,2013-01-08 22:00:00,
2013-01-08 15:05:00,48.5,17.6,29.92,WNW,283,8.0,10.0,29,0.00,,,0.00,Wunderground v.1.15,2013-01-08 22:05:00,
2013-01-08 15:15:00,48.7,17.8,29.93,WNW,301,7.0,10.0,29,0.00,,,0.00,Wunderground v.1.15,2013-01-08 22:15:00,
2013-01-08 15:20:00,48.7,17.0,29.93,SW,232,6.0,6.0,28,0.00,,,0.00,Wunderground v.1.15,2013-01-08 22:20:00,
2013-01-08 15:30:00,48.7,17.0,29.94,SW,225,5.0,6.0,28,0.00,,,0.00,Wunderground v.1.15,2013-01-08 22:30:00,
2013-01-08 15:35:00,48.9,17.2,29.95,WSW,239,6.0,6.0,28,0.00,,,0.00,Wunderground v.1.15,2013-01-08 22:35:00,
2013-01-08 15:40:00,48.8,17.1,29.95,SW,232,5.0,5.0,28,0.00,,,0.00,Wunderground v.1.15,2013-01-08 22:40:00,
2013-01-08 15:50:00,47.9,17.1,29.95,WSW,248,5.0,5.0,29,0.00,,,0.00,Wunderground v.1.15,2013-01-08 22:50:00,
2013-01-08 15:55:00,47.5,16.8,29.96,WSW,249,4.0,5.0,29,0.00,,,0.00,Wunderground v.1.15,2013-01-08 22:55:00,
2013-01-08 16:00:00,47.3,16.6,29.96,SW,233,4.0,4.0,29,0.00,,,0.00,Wunderground v.1.15,2013-01-08 23:00:00,
2013-01-08 16:05:00,47.1,17.2,29.97,WSW,238,3.0,4.0,30,0.00,,,0.00,Wunderground v.1.15,2013-01-08 23:05:00,
2013-01-08 16:15:00,46.1,16.3,29.97,ESE,104,1.0,2.0,30,0.00,,,0.00,Wunderground v.1.15,2013-01-08 23:15:00,
2013-01-08 16:20:00,45.7,16.7,29.98,South,186,1.0,1.0,31,0.00,,,0.00,Wunderground v.1.15,2013-01-08 23:20:00,
2013-01-08 16:25:00,45.3,16.4,29.98,SE,143,2.0,2.0,31,0.00,,,0.00,Wunderground v.1.15,2013-01-08 23:25:00,
2013-01-08 16:30:00,44.9,16.8,29.98,South,170,2.0,2.0,32,0.00,,,0.00,Wunderground v.1.15,2013-01-08 23:30:00,
2013-01-08 16:35:00,44.7,16.6,29.99,SW,236,2.0,2.0,32,0.00,,,0.00,Wunderground v.1.15,2013-01-08 23:35:00,
2013-01-08 16:45:00,44.7,15.9,30.00,WSW,248,3.0,5.0,31,0.00,,,0.00,Wunderground v.1.15,2013-01-08 23:45:00,
2013-01-08 16:50:00,44.5,15.7,30.00,NNE,18,2.0,2.0,31,0.00,,,0.00,Wunderground v.1.15,2013-01-08 23:50:00,
2013-01-08 17:00:00,43.2,16.0,30.01,ESE,121,0.0,1.0,33,0.00,,,0.00,Wunderground v.1.15,2013-01-09 00:00:00,
2013-01-08 17:05:00,42.8,15.6,30.02,NNE,20,1.0,1.0,33,0.00,,,0.00,Wunderground v.1.15,2013-01-09 00:05:00,
2013-01-08 17:15:00,42.2,15.8,30.02,SW,228,0.0,2.0,34,0.00,,,0.00,Wunderground v.1.15,2013-01-09 00:15:00,
2013-01-08 17:25:00,42.0,15.6,30.02,SSW,201,2.0,2.0,34,0.00,,,0.00,Wunderground v.1.15,2013-01-09 00:25:00,
2013-01-08 17:35:00,43.7,15.7,30.03,West,260,5.0,9.0,32,0.00,,,0.00,Wunderground v.1.15,2013-01-09 00:35:00,
2013-01-08 17:40:00,43.7,15.7,30.04,WSW,240,6.0,6.0,32,0.00,,,0.00,Wunderground v.1.15,2013-01-09 00:40:00,
2013-01-08 17:45:00,43.7,15.7,30.04,WSW,257,5.0,10.0,32,0.00,,,0.00,Wunderground v.1.15,2013-01-09 00:45:00,
2013-01-08 17:50:00,43.4,16.2,30.04,SW,228,5.0,5.0,33,0.00,,,0.00,Wunderground v.1.15,2013-01-09 00:50:00,
2013-01-08 17:55:00,43.2,16.0,30.05,West,264,4.0,5.0,33,0.00,,,0.00,Wunderground v.1.15,2013-01-09 00:55:00,
2013-01-08 18:05:00,43.3,15.4,30.05,SE,135,3.0,4.0,32,0.00,,,0.00,Wunderground v.1.15,2013-01-09 01:05:00,
2013-01-08 18:15:00,41.9,15.5,30.06,West,273,1.0,1.0,34,0.00,,,0.00,Wunderground v.1.15,2013-01-09 01:15:00,
2013-01-08 18:20:00,41.7,15.4,30.06,NNW,346,1.0,3.0,34,0.00,,,0.00,Wunderground v.1.15,2013-01-09 01:20:00,
2013-01-08 18:25:00,41.7,15.4,30.06,North,350,1.0,3.0,34,0.00,,,0.00,Wunderground v.1.15,2013-01-09 01:25:00,
2013-01-08 18:30:00,41.4,15.1,30.07,NNW,345,1.0,2.0,34,0.00,,,0.00,Wunderground v.1.15,2013-01-09 01:30:00,
2013-01-08 18:40:00,41.3,15.0,30.07,WSW,239,1.0,1.0,34,0.00,,,0.00,Wunderground v.1.15,2013-01-09 01:40:00,
2013-01-08 18:45:00,40.9,14.6,30.07,WSW,245,1.0,1.0,34,0.00,,,0.00,Wunderground v.1.15,2013-01-09 01:45:00,
2013-01-08 18:50:00,40.0,15.2,30.07,North,1,0.0,0.0,36,0.00,,,0.00,Wunderground v.1.15,2013-01-09 01:50:00,
2013-01-08 18:55:00,39.2,15.1,30.08,North,352,0.0,1.0,37,0.00,,,0.00,Wunderground v.1.15,2013-01-09 01:55:00,
2013-01-08 19:00:00,39.1,15.0,30.08,North,356,1.0,1.0,37,0.00,,,0.00,Wunderground v.1.15,2013-01-09 02:00:00,
2013-01-08 19:05:00,38.5,15.1,30.08,North,356,0.0,1.0,38,0.00,,,0.00,Wunderground v.1.15,2013-01-09 02:05:00,
2013-01-08 19:15:00,37.4,14.7,30.08,North,356,0.0,0.0,39,0.00,,,0.00,Wunderground v.1.15,2013-01-09 02:15:00,
2013-01-08 19:20:00,37.5,14.8,30.08,North,356,0.0,0.0,39,0.00,,,0.00,Wunderground v.1.15,2013-01-09 02:20:00,
2013-01-08 19:25:00,36.9,14.8,30.08,North,356,0.0,0.0,40,0.00,,,0.00,Wunderground v.1.15,2013-01-09 02:25:00,
2013-01-08 19:30:00,36.0,14.5,30.08,North,356,0.0,0.0,41,0.00,,,0.00,Wunderground v.1.15,2013-01-09 02:30:00,
2013-01-08 19:35:00,35.9,15.0,30.09,North,356,0.0,1.0,42,0.00,,,0.00,Wunderground v.1.15,2013-01-09 02:35:00,
2013-01-08 19:40:00,35.3,14.5,30.09,North,356,0.0,0.0,42,0.00,,,0.00,Wunderground v.1.15,2013-01-09 02:40:00,
2013-01-08 19:45:00,34.7,15.0,30.09,West,271,1.0,1.0,44,0.00,,,0.00,Wunderground v.1.15,2013-01-09 02:45:00,
2013-01-08 19:50:00,35.0,14.7,30.10,West,271,1.0,1.0,43,0.00,,,0.00,Wunderground v.1.15,2013-01-09 02:50:00,
2013-01-08 19:55:00,34.9,14.6,30.10,WNW,297,0.0,1.0,43,0.00,,,0.00,Wunderground v.1.15,2013-01-09 02:55:00,
2013-01-08 20:05:00,34.4,14.7,30.10,NNW,332,0.0,0.0,44,0.00,,,0.00,Wunderground v.1.15,2013-01-09 03:05:00,
2013-01-08 20:15:00,33.7,14.6,30.11,WSW,248,0.0,0.0,45,0.00,,,0.00,Wunderground v.1.15,2013-01-09 03:15:00,
2013-01-08 20:20:00,32.7,14.2,30.11,NNW,342,0.0,0.0,46,0.00,,,0.00,Wunderground v.1.15,2013-01-09 03:20:00,
2013-01-08 20:25:00,32.7,15.1,30.11,NW,308,1.0,2.0,48,0.00,,,0.00,Wunderground v.1.15,2013-01-09 03:25:00,
2013-01-08 20:30:00,34.0,14.9,30.11,NNW,338,1.0,2.0,45,0.00,,,0.00,Wunderground v.1.15,2013-01-09 03:30:00,
2013-01-08 20:35:00,33.9,14.8,30.11,West,262,1.0,2.0,45,0.00,,,0.00,Wunderground v.1.15,2013-01-09 03:35:00,
2013-01-08 20:45:00,35.1,14.8,30.12,WNW,283,1.0,1.0,43,0.00,,,0.00,Wunderground v.1.15,2013-01-09 03:45:00,
2013-01-08 20:50:00,36.0,15.1,30.12,East,81,1.0,1.0,42,0.00,,,0.00,Wunderground v.1.15,2013-01-09 03:50:00,
2013-01-08 20:55:00,36.0,15.1,30.12,North,355,1.0,1.0,42,0.00,,,0.00,Wunderground v.1.15,2013-01-09 03:55:00,
2013-01-08 21:00:00,35.5,14.6,30.12,NNE,12,0.0,0.0,42,0.00,,,0.00,Wunderground v.1.15,2013-01-09 04:00:00,
2013-01-08 21:05:00,33.6,14.5,30.13,WSW,256,1.0,1.0,45,0.00,,,0.00,Wunderground v.1.15,2013-01-09 04:05:00,
2013-01-08 21:15:00,34.7,15.0,30.13,WSW,252,2.0,2.0,44,0.00,,,0.00,Wunderground v.1.15,2013-01-09 04:15:00,
2013-01-08 21:25:00,35.8,14.4,30.14,NNW,348,2.0,2.0,41,0.00,,,0.00,Wunderground v.1.15,2013-01-09 04:25:00,
2013-01-08 21:30:00,35.6,14.2,30.14,NNW,348,1.0,1.0,41,0.00,,,0.00,Wunderground v.1.15,2013-01-09 04:30:00,
2013-01-08 21:35:00,35.9,13.9,30.14,WNW,303,0.0,1.0,40,0.00,,,0.00,Wunderground v.1.15,2013-01-09 04:35:00,
2013-01-08 21:40:00,37.2,14.5,30.13,West,269,1.0,1.0,39,0.00,,,0.00,Wunderground v.1.15,2013-01-09 04:40:00,
2013-01-08 21:45:00,38.0,14.6,30.13,NNW,338,1.0,2.0,38,0.00,,,0.00,Wunderground v.1.15,2013-01-09 04:45:00,
2013-01-08 21:50:00,39.7,14.9,30.14,North,359,2.0,2.0,36,0.00,,,0.00,Wunderground v.1.15,2013-01-09 04:50:00,
2013-01-08 21:55:00,36.7,14.6,30.14,NNE,30,2.0,2.0,40,0.00,,,0.00,Wunderground v.1.15,2013-01-09 04:55:00,
2013-01-08 22:00:00,34.1,14.4,30.14,NNW,338,1.0,1.0,44,0.00,,,0.00,Wunderground v.1.15,2013-01-09 05:00:00,
2013-01-08 22:05:00,34.5,14.8,30.14,NW,311,1.0,1.0,44,0.00,,,0.00,Wunderground v.1.15,2013-01-09 05:05:00,
2013-01-08 22:10:00,35.1,14.8,30.14,NW,311,1.0,1.0,43,0.00,,,0.00,Wunderground v.1.15,2013-01-09 05:10:00,
2013-01-08 22:15:00,33.8,14.2,30.14,NW,311,0.0,1.0,44,0.00,,,0.00,Wunderground v.1.15,2013-01-09 05:15:00,
2013-01-08 22:20:00,33.6,14.0,30.15,NW,311,0.0,0.0,44,0.00,,,0.00,Wunderground v.1.15,2013-01-09 05:20:00,
2013-01-08 22:25:00,33.5,14.4,30.15,SSW,205,0.0,0.0,45,0.00,,,0.00,Wunderground v.1.15,2013-01-09 05:25:00,
2013-01-08 22:30:00,32.7,14.2,30.15,WSW,246,0.0,2.0,46,0.00,,,0.00,Wunderground v.1.15,2013-01-09 05:30:00,
2013-01-08 22:35:00,32.8,14.3,30.15,WSW,255,1.0,2.0,46,0.00,,,0.00,Wunderground v.1.15,2013-01-09 05:35:00,
2013-01-08 22:45:00,32.7,14.2,30.15,SSE,148,1.0,1.0,46,0.00,,,0.00,Wunderground v.1.15,2013-01-09 05:45:00,
2013-01-08 22:50:00,32.3,14.3,30.16,SE,146,0.0,0.0,47,0.00,,,0.00,Wunderground v.1.15,2013-01-09 05:50:00,
2013-01-08 22:55:00,32.3,14.3,30.16,ESE,104,0.0,0.0,47,0.00,,,0.00,Wunderground v.1.15,2013-01-09 05:55:00,
2013-01-08 23:00:00,32.2,13.7,30.16,WSW,256,0.0,1.0,46,0.00,,,0.00,Wunderground v.1.15,2013-01-09 06:00:00,
2013-01-08 23:10:00,31.4,13.9,30.17,North,8,0.0,0.0,48,0.00,,,0.00,Wunderground v.1.15,2013-01-09 06:10:00,
2013-01-08 23:15:00,30.7,14.2,30.17,West,273,0.0,0.0,50,0.00,,,0.00,Wunderground v.1.15,2013-01-09 06:15:00,
2013-01-08 23:25:00,31.9,14.4,30.17,NNW,342,1.0,1.0,48,0.00,,,0.00,Wunderground v.1.15,2013-01-09 06:25:00,
2013-01-08 23:30:00,31.4,13.9,30.17,ENE,71,0.0,1.0,48,0.00,,,0.00,Wunderground v.1.15,2013-01-09 06:30:00,
2013-01-08 23:35:00,30.3,13.9,30.17,North,6,0.0,1.0,50,0.00,,,0.00,Wunderground v.1.15,2013-01-09 06:35:00,
2013-01-08 23:40:00,29.9,13.9,30.17,West,271,1.0,1.0,51,0.00,,,0.00,Wunderground v.1.15,2013-01-09 06:40:00,
2013-01-08 23:45:00,30.1,14.1,30.17,West,271,0.0,1.0,51,0.00,,,0.00,Wunderground v.1.15,2013-01-09 06:45:00,
2013-01-08 23:55:00,30.1,14.1,30.17,West,276,1.0,1.0,51,0.00,,,0.00,Wunderground v.1.15,2013-01-09 06:55:00,